一网星座-0654星 (ONEWEB-0654)

导读 | 豆包AI

ONEWEB-0654是英国OneWeb卫星星座中的一颗低轨通信卫星,于2023年3月9日发射。OneWeb星座计划构建全球卫星互联网,单星重约147kg,运行在1200公里近地轨道,采用Ku频段提供通信服务。该卫星星座可覆盖全球,支持应急救援、偏远地区网络接入、海上通信等多场景应用,单星吞吐量超7Gbit,能为用户提供低延迟宽带接入服务,是OneWeb完成全球组网的重要组成卫星。

Basic Information
目录编号:
55816
目录名称:
ONEWEB-0654
国际标识:
2023-029W
轨道中心:
EARTH
卫星名称:
一网星座-0654星
卫星全名:
一网星座-0654星 (ONEWEB-0654)
卫星状态:
在轨 (已飞行1150 天)
发射日期:
2023-03-09 UTC
国别 :
英国 (GB)
星等 :
--
Orbit Information
数据来源 国际轨道数据 AOE轨道数据
星历时间 2026-05-02T06:41:20+0800
12小时前
查看轨道信息
2026-04-29T16:00:00+0800
3天前
查看轨道信息
半长轴 7583.929km 7583.945km
偏心率 0.0001822 0.000001
轨道倾角 87.892° 87.889°
近地点辐角 104.066° 116.957°
升交点赤经 298.933° 299.449°
平近点角 256.068° 129.500°
近地点 1204.41km 1205.8km
远地点 1207.174km 1205.816km
周期 109.547分钟 109.547分钟
每日圈数 13.145025 13.144984
Detailed Information
平衡模式:
三轴稳定
覆盖范围:
全球
运营商:
一网卫星公司
运营商所在国:
英国
制造商(研发单位):
一网卫星公司
制造商所在国:
英国
使用方式:
暂无
Satellite Introduction
OneWeb卫星网络由648颗重约125公斤的微型卫星组成,运行在1200公里的轨道上。 每颗卫星都能够提供至少每秒8千兆位的吞吐量,以使用其高吞吐量的Ku频段有效载荷为家庭和移动平台提供互联网接入。该卫星仍在工作。
2D Orbit Map
3D Orbit Map
Orbit Altitude Analysis Chart
Orbit Inclination Analysis Chart
Orbit Comprehensive Analysis Chart
View Comprehensive Chart